Regional Weather Roundup
Issued by NWS

Home | Current Version | Previous Version | Text Only | Print | Product List | Glossary Off
Versions: 1 2 3 4 5 6 7 8 9 10 11 12 13 14 15 16 17 18 19 20 21 22 23 24 25 26 27 28 29 30 31 32 33 34 35 36 37 38 39 40 41 42 43 44 45 46 47 48 49 50

000
ASUS43 KMPX 230510
RWRMN
WEATHER ROUNDUP FOR MINNESOTA
NATIONAL WEATHER SERVICE TWIN CITIES/CHANHASSEN MN
1200 AM CDT FRI JUN 23 2017


NOTE: "FAIR" INDICATES FEW OR NO CLOUDS BELOW 12,000 FEET WITH NO
SIGNIFICANT WEATHER AND/OR OBSTRUCTIONS TO VISIBILITY. N/A MEANS
CURRENT SKY AND/OR WEATHER CONDITIONS ARE NOT AVAILABLE.

MNZ060>063-068>070-230600-
   Twin Cities Metro

CITY           SKY/WX    TMP DP  RH WIND       PRES   REMARKS
TWIN CITIES    PTCLDY    64  58  80 W3        29.75S
ST PAUL        CLEAR     63  60  90 N3        29.75S
CRYSTAL        CLEAR     60  55  83 CALM      29.74S
BLAINE         CLEAR     61  57  88 CALM      29.75R
LAKEVILLE      CLEAR     59  59 100 CALM      29.76S
EDEN PRAIRIE   CLEAR     62  58  86 W3        29.74F
SOUTH ST PAUL  CLEAR     64  61  90 CALM      29.74F
LAKE ELMO      FAIR      61  59  94 CALM      29.75F
$$
MNZ001>005-007-008-013>017-022>024-027-028-230600-
   Northwest Minnesota

CITY           SKY/WX    TMP DP  RH WIND       PRES   REMARKS
BEMIDJI        CLOUDY    59  41  50 SW8       29.68F
HALLOCK        CLEAR     55  48  76 W10       29.66S
ROSEAU           N/A     57  48  72 W10       29.63F
WARROAD        CLEAR     57  48  72 W9G16     29.62F
THIEF RVR FALL MOCLDY    59  45  59 W12       29.69S
CROOKSTON      CLEAR     61  46  59 NW15G24   29.71R
FOSSTON        PTCLDY    55  43  62 W8        29.70S
DETROIT LAKES  CLEAR     63  39  42 W9        29.74S
MOORHEAD       PTCLDY    61  39  44 W8        29.74S
PARK RAPIDS    CLEAR     53  40  61 W8        29.71F
MAHNOMEN       FAIR      55  44  64 W8        29.71S
$$
MNZ006-009>011-018-025>026-230600-
   North Central Minnesota

CITY           SKY/WX    TMP DP  RH WIND       PRES   REMARKS
BAUDETTE       CLOUDY    59  45  59 W10       29.61F
FLAG ISLAND    LGT RAIN  57  48  72 W14       29.57F
INTL FALLS     CLOUDY    57  44  62 SW3       29.60F
WASKISH        CLOUDY    63  46  55 W23G30    29.64F
BIG FORK       CLOUDY    55  45  67 SW7       29.66S
LONGVILLE      CLEAR     54  45  71 SW6       29.69F
GRAND RAPIDS   CLEAR     56  45  66 S5        29.70F
CRANE LAKE     CLEAR     48  46  93 S3        29.63F
ORR            MOCLDY    57  37  47 SW5       29.61F
COOK           PTCLDY    55  43  62 S3        29.65F
WALKER         FAIR      58  40  50 SW8       29.69S
$$
MNZ012-019>021-037-230600-
   Northeast Minnesota

CITY           SKY/WX    TMP DP  RH WIND       PRES   REMARKS
DULUTH         PTCLDY    54  53  97 W8        29.68F
ELY            CLEAR     55  45  67 SW3       29.65F
HIBBING        CLEAR     45  44  97 CALM      29.67F
EVELETH        CLEAR     50  47  88 CALM      29.68F
DULUTH HARBOR  CLEAR     64  57  77 SW7       29.67F
TWO HARBORS    PTCLDY    59  54  82 W3        29.65F
SILVER BAY     PTCLDY    55  54  94 CALM      29.65S
GRAND MARAIS     N/A     60  49  66 NW5       29.62F
G MARAIS ARPRT CLOUDY    57  43  58 SW3       29.66F
$$
MNZ029>031-032-039>041-046>048-054>057-064-230600-
   West Central Minnesota

CITY           SKY/WX    TMP DP  RH WIND       PRES   REMARKS
FERGUS FALLS   CLEAR     57  45  62 W8        29.73F
WHEATON        CLEAR     61  48  63 SW6       29.78F
MORRIS         CLEAR     63  52  67 SW7       29.77F
ALEXANDRIA     CLEAR     57  50  77 SW8       29.77F
ELBOW LAKE     FAIR      56  46  69 SW9       29.76F
WADENA         CLEAR     57  45  62 SW5       29.73S
GLENWOOD       CLEAR     57  55  94 SW7       29.78F
APPLETON       CLEAR     61  55  82 SW6       29.78F
BENSON         CLEAR     59  54  82 W6        29.79F
ORTONVILLE     CLEAR     63  52  67 W3        29.79S
MADISON        CLEAR     63  63 100 W5        29.80F
WILLMAR        FAIR      63  55  77 W3        29.79F
$$
MNZ033>034-036-042>043-049>051-058-059-230600-
   Central Minnesota

CITY           SKY/WX    TMP DP  RH WIND       PRES   REMARKS
ST CLOUD       CLEAR     60  55  83 W8        29.75F
SAUK CENTRE    FAIR      59  55  84 SW5       29.77S
PAYNESVILLE    CLEAR     56  56 100 W5        29.78F
AITKIN         CLEAR     55  48  76 CALM      29.70F
PINE RIVER     CLEAR     50  46  87 CALM      29.75F
BRAINERD       CLEAR     58  50  75 S5        29.72F
STAPLES        CLEAR     57  43  58 SW6       29.73F
LONG PRAIRIE   FAIR      57  54  88 S6        29.76F
LITTLE FALLS   CLEAR     61  54  77 CALM      29.75S
LITCHFIELD     CLEAR     64  55  72 W3        29.78S
BUFFALO        CLEAR     62  55  77 W3        29.77S
MAPLE LAKE     CLEAR     64  55  72 W5        29.77S
HUTCHINSON     CLEAR     61  56  84 W5        29.79S
$$
MNZ037-044-045-052-053-230600-
   East Central Minnesota

CITY           SKY/WX    TMP DP  RH WIND       PRES   REMARKS
PRINCETON      CLEAR     61  54  77 W3        29.75S
MORA           CLEAR     61  52  72 W8        29.75S
CAMBRIDGE      CLEAR     64  52  63 W3        29.73S
RUSH CITY      PTCLDY    59  52  77 W3        29.74S
MOOSE LAKE     PTCLDY    59  54  82 W5        29.69S
HINCKLEY       FAIR      61  54  77 W7        29.73S
CLOQUET        CLEAR     61  54  77 W8        29.70S
MCGREGOR       CLEAR     61  52  72 SW6       29.71F
$$
MNZ071>073-080-081-089-090-097-098-230600-
   Southwest Minnesota

CITY           SKY/WX    TMP DP  RH WIND       PRES   REMARKS
MONTEVIDEO     CLEAR     63  55  77 NW3       29.79S
GRANITE FALLS  CLEAR     61  55  79 W7        29.81S
CANBY          CLEAR     64  56  75 CALM      29.82S
MARSHALL       CLEAR     59  55  87 W7        29.81S
REDWOOD FALLS  CLEAR     62  53  72 W5        29.78F
OLIVIA         CLEAR     59  54  82 W3        29.78F
PIPESTONE      CLEAR     61  48  63 W5        29.84S
WINDOM         CLEAR     59  54  82 W3        29.81F
WORTHINGTON    CLEAR     58  52  80 W6        29.83F
JACKSON        CLEAR     57  54  88 CALM      29.83S
TRACY          CLEAR     62  53  72 W6        29.82S
SLAYTON        PTCLDY    57  47  69 W5        29.84S
$$
MNZ065>067-074>077-082>085-091>093-230600-
   South Central Minnesota

CITY           SKY/WX    TMP DP  RH WIND       PRES   REMARKS
MANKATO        CLEAR     61  56  83 W3        29.78F
NEW ULM        CLEAR     55  54  94 W5        29.78F
ST JAMES       CLEAR     59  55  88 W3        29.80F
FAIRMONT       CLOUDY    61  57  87 NW7       29.80R
GLENCOE        CLEAR     62  59  91 W3        29.77R
FARIBAULT      CLOUDY    63  61  94 CALM      29.77S
OWATONNA       CLOUDY    63  61  94 NW3       29.77S
WASECA         CLOUDY    59  55  88 NW5       29.79S
ALBERT LEA     CLOUDY    66  63  88 N5        29.78R
$$
MNZ078>079-086>088-094>096-230600-
   Southeast Minnesota

CITY           SKY/WX    TMP DP  RH WIND       PRES   REMARKS
ROCHESTER      CLOUDY    65  65 100 NW7       29.77S
RED WING       CLOUDY    64  63  94 CALM      29.74R FOG
STANTON        CLOUDY    64  61  91 W3        29.75S
DODGE CENTER   CLOUDY    64  63  94 NW6       29.77R FOG
WINONA         CLOUDY    68  68 100 CALM      29.73R
AUSTIN         CLOUDY    66  63  88 NW6       29.76R FOG
PRESTON        CLOUDY    65  63  94 NW5       29.75S
$$
ABBREVIATIONS USED IN REMARKS
   TC - TEMPERATURES IN CELSIUS
  WCI - WIND CHILL INDEX
   HX - HEAT INDEX
  VSB - VISIBILITY
$$



USA.gov is the U.S. government's official web portal to all federal, state and local government web resources and services.